Sunday, December 16, 2018, 5:53 AM EST
Back to Local

KSYR, Syracuse Hancock International Airport

Location: Syracuse, NY, United States Lat: 43.117
Local Time: 5:53 AM EST (10:53 GMT) Lon: -76.1
Time Zone: US/Eastern Elev: 410 ft

Show me the last for .
Show Decoded

2018-12-16 04:54 METAR KSYR 160954Z 06007KT 10SM SCT150 OVC180 00/M02 A3010 RMK AO2 SLP193
                 T00001022 $ =
2018-12-16 03:54 METAR KSYR 160854Z 10005KT 10SM OVC190 00/M02 A3011 RMK AO2 SLP197 T00001017
                 58020 $ =
2018-12-16 02:54 METAR KSYR 160754Z 08006KT 8SM OVC200 M01/M02 A3013 RMK AO2 SLP204 T10061017 $ =
2018-12-16 01:54 METAR KSYR 160654Z 07004KT 5SM BR FEW004 OVC210 M01/M02 A3016 RMK AO2 SLP213
                 T10111017 $ =
2018-12-16 01:31 METAR KSYR 160631Z 00000KT 3SM R28/3500V4500FT BR FEW002 OVC210 M01/M02 A3017
                 RMK AO2 T10111017 $ =
2018-12-16 01:12 METAR KSYR 160612Z 00000KT 2 1/2SM R28/2400V3500FT BR SCT002 OVC210 M01/M01
                 A3017 RMK AO2 T10111011 $ =
2018-12-16 00:54 METAR KSYR 160554Z 07004KT 2SM R28/3500VP6000FT BR BKN001 OVC210 M01/M02 A3017
                 RMK AO2 SLP218 VIS 1V2 T10111017 10017 21022 58020 $ =
2018-12-16 00:46 METAR KSYR 160546Z 08004KT 2SM R28/4500VP6000FT BR BKN001 OVC210 M01/M02 A3017
                 RMK AO2 VIS 1 NW T10111017 $ =
2018-12-16 00:36 METAR KSYR 160536Z 05003KT 2SM BR BKN002 OVC210 M02/M02 A3018 RMK AO2 T10171022
                 $ =
2018-12-16 00:30 METAR KSYR 160530Z 08004KT 4SM BR SCT002 OVC210 M02/M02 A3019 RMK AO2 T10221022
                 $ =
2018-12-15 23:54 METAR KSYR 160454Z 04003KT 4SM BR OVC210 M02/M02 A3020 RMK AO2 SLP227 T10171022
                 400671022 $ =
2018-12-15 22:54 METAR KSYR 160354Z 00000KT 5SM BR BKN220 M01/M02 A3022 RMK AO2 SLP236 T10111017
                 $ =
2018-12-15 21:54 METAR KSYR 160254Z 00000KT 5SM BR OVC200 00/M01 A3023 RMK AO2 SLP238 T00001011
                 51007 $ =
2018-12-15 20:54 METAR KSYR 160154Z 00000KT 5SM BR OVC200 01/M01 A3022 RMK AO2 SLP235 T00061006 $
                 =
2018-12-15 19:54 METAR KSYR 160054Z 27003KT 6SM BR OVC220 01/M01 A3022 RMK AO2 SLP233 T00061006 $
                 =
2018-12-15 18:54 METAR KSYR 152354Z 35003KT 6SM BR OVC200 01/M01 A3021 RMK AO2 SLP230 T00061006
                 10044 20006 53006 $ =
2018-12-15 17:54 METAR KSYR 152254Z 33003KT 7SM OVC200 02/00 A3020 RMK AO2 SLP226 T00170000 $ =
2018-12-15 16:54 METAR KSYR 152154Z 02003KT 8SM BKN200 OVC240 02/00 A3019 RMK AO2 SLP225
                 T00170000 $ =
2018-12-15 15:54 METAR KSYR 152054Z 00000KT 8SM OVC200 03/01 A3019 RMK AO2 SLP224 T00330006 58008
                 $ =
2018-12-15 15:14 METAR KSYR 152014Z 06004KT 8SM FEW016 OVC200 04/01 A3020 RMK AO2 T00390011 $ =
2018-12-15 14:54 METAR KSYR 151954Z 00000KT 9SM BKN016 OVC210 04/01 A3020 RMK AO2 SLP227
                 T00390011 $ =
2018-12-15 13:54 METAR KSYR 151854Z 10003KT 10SM SCT016 OVC200 04/01 A3021 RMK AO2 SLP231
                 T00390011 $ =
2018-12-15 13:50 METAR KSYR 151850Z 11003KT 10SM SCT016 OVC200 04/01 A3021 RMK AO2 $ =
2018-12-15 12:54 METAR KSYR 151754Z 00000KT 10SM BKN017 OVC200 04/01 A3021 RMK AO2 SLP231
                 T00390006 10044 20028 55010 $ =
2018-12-15 12:33 METAR KSYR 151733Z 01005KT 10SM BKN018 OVC200 04/01 A3021 RMK AO2 T00440006 $ =
2018-12-15 11:54 METAR KSYR 151654Z 00000KT 10SM SCT015 OVC200 04/01 A3021 RMK AO2 SLP229
                 T00440006 $ =
2018-12-15 10:54 METAR KSYR 151554Z 32005KT 8SM SCT010 OVC210 04/01 A3023 RMK AO2 SLP235
                 T00390011 $ =
2018-12-15 10:48 METAR KSYR 151548Z 34005KT 7SM FEW006 SCT010 OVC210 04/01 A3023 RMK AO2 $ =
2018-12-15 10:30 METAR KSYR 151530Z 35008KT 7SM FEW006 BKN010 OVC015 04/02 A3023 RMK AO2
                 T00390017 $ =
2018-12-15 10:05 METAR KSYR 151505Z 34008KT 5SM BR BKN006 BKN010 OVC015 04/02 A3024 RMK AO2
                 T00390022 $ =
2018-12-15 09:58 METAR KSYR 151458Z COR 33008KT 4SM BR BKN006 OVC012 04/02 A3024 =
2018-12-15 09:54 METAR KSYR 151454Z 33007KT 4SM BR SCT006 BKN010 04/02 A3024 RMK AO2 SLP241
                 T00390022 51005 $ =
2018-12-15 09:39 METAR KSYR 151439Z 34006KT 3SM BR BKN006 OVC012 04/03 A3024 RMK AO2 T00390028 $
                 =
2018-12-15 09:09 METAR KSYR 151409Z 34004KT 2 1/2SM BR BKN009 OVC014 04/03 A3024 RMK AO2
                 T00390033 $ =
2018-12-15 08:54 METAR KSYR 151354Z 31003KT 3SM BR BKN010 OVC019 04/03 A3024 RMK AO2 SLP239
                 T00390028 $ =
2018-12-15 08:13 METAR KSYR 151313Z 33004KT 3SM BR BKN010 OVC018 04/03 A3024 RMK AO2 T00390028 $
                 =
2018-12-15 07:54 METAR KSYR 151254Z 31004KT 6SM BR BKN008 OVC017 03/02 A3025 RMK AO2 SLP242
                 T00330022 $ =
2018-12-15 07:08 METAR KSYR 151208Z 00000KT 8SM BKN009 OVC019 03/02 A3023 RMK AO2 T00280017 $ =
2018-12-15 06:54 METAR KSYR 151154Z 00000KT 9SM BKN020 OVC025 03/02 A3023 RMK AO2 SLP235
                 T00280017 10050 20017 51025 $ =
2018-12-15 05:54 METAR KSYR 151054Z 00000KT 9SM OVC024 03/02 A3021 RMK AO2 SLP231 T00280017 $ =

Support USWX by starting your Amazon purchase here.